TimePST,TemperatureF,Dew PointF,Humidity,Sea Level PressureIn,VisibilityMPH,Wind Direction,Wind SpeedMPH,Gust SpeedMPH,PrecipitationIn,Events,Conditions,WindDirDegrees,DateUTC
12:00 AM,43.3,43.2,99,29.88,-9999.0,East,9.2,-,N/A,,Unknown,100,2012-11-16 08:00:00
1:00 AM,44,44,98,29.86,,East,9.2,,,,,90,2012-11-16 09:00:00
1:00 AM,44.4,43.7,97,29.86,-9999.0,East,9.2,-,N/A,,Unknown,90,2012-11-16 09:00:00
2:00 AM,46.0,44.2,93,29.84,-9999.0,East,16.1,25.3,N/A,,Unknown,100,2012-11-16 10:00:00
3:00 AM,46.0,43.7,92,29.83,-9999.0,East,18.4,31.1,N/A,,Unknown,100,2012-11-16 11:00:00
4:00 AM,46,44,89,29.80,,East,16.1,,,,,100,2012-11-16 12:00:00
4:00 AM,45.9,43.7,92,29.80,-9999.0,East,16.1,28.8,N/A,,Unknown,100,2012-11-16 12:00:00
5:00 AM,46.2,43.7,91,29.78,-9999.0,East,16.1,27.6,N/A,,Unknown,100,2012-11-16 13:00:00
6:00 AM,46.2,43.7,91,29.77,-9999.0,East,17.3,28.8,N/A,,Unknown,100,2012-11-16 14:00:00
7:00 AM,47,44,83,29.75,,East,20.7,,,,,100,2012-11-16 15:00:00
7:00 AM,46.8,43.5,88,29.75,-9999.0,East,20.7,32.2,N/A,,Unknown,100,2012-11-16 15:00:00
8:00 AM,46.2,43.9,92,29.74,-9999.0,East,19.6,33.4,0.01,,Unknown,100,2012-11-16 16:00:00
9:00 AM,45.9,44.2,94,29.73,-9999.0,East,19.6,32.2,0.05,,Unknown,100,2012-11-16 17:00:00
10:00 AM,46,45,94,29.73,,East,24.2,,,,,100,2012-11-16 18:00:00
10:00 AM,46.0,44.8,95,29.73,-9999.0,East,24.2,36.8,0.07,,Unknown,100,2012-11-16 18:00:00
11:00 AM,46.2,45.3,97,29.72,-9999.0,East,20.7,31.1,0.11,,Unknown,100,2012-11-16 19:00:00
12:00 PM,47.3,46.6,97,29.70,-9999.0,East,21.9,34.5,0.06,,Unknown,100,2012-11-16 20:00:00
1:00 PM,47,46,97,29.67,,East,20.7,,,,,100,2012-11-16 21:00:00
1:00 PM,47.1,46.4,97,29.67,-9999.0,East,20.7,34.5,0.12,,Unknown,100,2012-11-16 21:00:00
2:00 PM,48.4,47.8,98,29.65,-9999.0,East,19.6,32.2,0.27,,Unknown,100,2012-11-16 22:00:00
3:00 PM,48.4,47.8,98,29.63,-9999.0,ESE,25.3,40.3,0.17,,Unknown,120,2012-11-16 23:00:00
4:00 PM,47,46,96,29.62,,East,20.7,,,,,100,2012-11-17 00:00:00
4:00 PM,46.8,46.2,98,29.62,-9999.0,East,20.7,39.1,0.27,,Unknown,100,2012-11-17 00:00:00
5:00 PM,46.2,45.5,97,29.59,-9999.0,East,19.6,35.7,0.12,,Unknown,100,2012-11-17 01:00:00
6:00 PM,46.8,46.0,97,29.54,-9999.0,East,24.2,36.8,0.05,,Unknown,100,2012-11-17 02:00:00
7:00 PM,47,46,97,29.50,,East,24.2,,,,,100,2012-11-17 03:00:00
7:00 PM,47.3,46.4,97,29.50,-9999.0,East,24.2,41.4,0.02,,Unknown,100,2012-11-17 03:00:00
8:00 PM,47.7,46.6,96,29.48,-9999.0,East,24.2,41.4,0.09,,Unknown,100,2012-11-17 04:00:00
9:00 PM,48.7,47.7,96,29.46,-9999.0,East,25.3,43.7,0.10,,Unknown,100,2012-11-17 05:00:00
10:00 PM,49,49,99,29.44,,East,27.6,,,,,100,2012-11-17 06:00:00
10:00 PM,49.5,48.7,97,29.44,-9999.0,East,27.6,44.9,0.17,,Unknown,100,2012-11-17 06:00:00
11:00 PM,50.7,50.0,97,29.41,-9999.0,ESE,23.0,36.8,0.06,,Unknown,110,2012-11-17 07:00:00